• In Belarus
  • List of Countries
  • For 7 days
  • Water Temperature
  • Satellite Maps
  • Weather Map
  • Weather Widgets
  • user-avatar
    Login

    Hourly Weather Tanger

    Today, 22 September, Saturday

    Time Temperature Precipitation Wind Pressure Humidity
    00:00 +26°C° 0 mm 4 mps 762 mmHg 68%
    01:00 +25°C° 0 mm 4 mps 762 mmHg 67%
    02:00 +25°C° 0 mm 4 mps 762 mmHg 66%
    03:00 +25°C° 0 mm 4 mps 761 mmHg 66%
    04:00 +25°C° 0 mm 4 mps 761 mmHg 64%
    05:00 +23°C° 0 mm 4 mps 762 mmHg 63%
    06:00 +23°C° 0 mm 4 mps 762 mmHg 62%
    07:00 +26°C° 0 mm 5 mps 762 mmHg 55%
    08:00 +28°C° 0 mm 5 mps 762 mmHg 48%
    09:00 +30°C° 0 mm 5 mps 762 mmHg 41%
    10:00 +33°C° 0 mm 5 mps 763 mmHg 36%
    11:00 +34°C° 0 mm 6 mps 763 mmHg 32%
    12:00 +35°C° 0 mm 6 mps 763 mmHg 28%
    13:00 +35°C° 0 mm 6 mps 762 mmHg 28%
    14:00 +35°C° 0 mm 7 mps 762 mmHg 28%
    15:00 +35°C° 0 mm 7 mps 762 mmHg 29%
    16:00 +34°C° 0 mm 7 mps 762 mmHg 34%
    17:00 +32°C° 0 mm 7 mps 762 mmHg 40%
    18:00 +29°C° 0 mm 6 mps 762 mmHg 46%
    19:00 +28°C° 0 mm 6 mps 762 mmHg 51%
    20:00 +27°C° 0 mm 6 mps 762 mmHg 57%
    21:00 +26°C° 0 mm 6 mps 763 mmHg 62%
    22:00 +24°C° 0 mm 6 mps 763 mmHg 61%
    23:00 +24°C° 0 mm 6 mps 762 mmHg 60%

    Tomorrow, 23 September, Sunday

    Time Temperature Precipitation Wind Pressure Humidity
    00:00 +24°C° 0 mm 6 mps 762 mmHg 60%
    01:00 +24°C° 0 mm 6 mps 762 mmHg 60%
    02:00 +23°C° 0 mm 6 mps 762 mmHg 60%
    03:00 +23°C° 0 mm 6 mps 762 mmHg 61%
    04:00 +23°C° 0 mm 6 mps 762 mmHg 62%
    05:00 +23°C° 0 mm 6 mps 762 mmHg 63%
    06:00 +22°C° 0 mm 5 mps 762 mmHg 63%
    07:00 +25°C° 0 mm 5 mps 762 mmHg 57%
    08:00 +28°C° 0 mm 6 mps 762 mmHg 51%
    09:00 +30°C° 0 mm 6 mps 763 mmHg 44%
    10:00 +32°C° 0 mm 6 mps 763 mmHg 40%
    11:00 +34°C° 0 mm 6 mps 763 mmHg 36%
    12:00 +35°C° 0 mm 6 mps 762 mmHg 32%
    13:00 +35°C° 0 mm 6 mps 762 mmHg 33%
    14:00 +35°C° 0 mm 6 mps 762 mmHg 34%
    15:00 +35°C° 0 mm 6 mps 761 mmHg 35%
    16:00 +34°C° 0 mm 6 mps 761 mmHg 41%
    17:00 +32°C° 0 mm 6 mps 761 mmHg 47%
    18:00 +30°C° 0 mm 6 mps 761 mmHg 53%
    19:00 +28°C° 0 mm 6 mps 761 mmHg 58%
    20:00 +27°C° 0 mm 6 mps 762 mmHg 63%
    21:00 +26°C° 0 mm 6 mps 762 mmHg 68%
    22:00 +26°C° 0 mm 6 mps 762 mmHg 68%
    23:00 +26°C° 0 mm 6 mps 762 mmHg 67%

    Day after tomorrow, 24 September, Monday

    Time Temperature Precipitation Wind Pressure Humidity
    00:00 +24°C° 0 mm 6 mps 762 mmHg 66%
    01:00 +24°C° 0 mm 6 mps 762 mmHg 66%
    02:00 +25°C° 0 mm 5 mps 761 mmHg 66%
    03:00 +25°C° 0 mm 5 mps 761 mmHg 66%
    04:00 +25°C° 0 mm 5 mps 761 mmHg 66%
    05:00 +23°C° 0 mm 5 mps 761 mmHg 67%
    06:00 +23°C° 0 mm 5 mps 761 mmHg 67%
    07:00 +26°C° 0 mm 5 mps 762 mmHg 60%
    08:00 +28°C° 0 mm 5 mps 762 mmHg 54%
    09:00 +30°C° 0 mm 5 mps 762 mmHg 48%
    10:00 +33°C° 0 mm 5 mps 762 mmHg 43%
    11:00 +34°C° 0 mm 5 mps 762 mmHg 39%
    12:00 +36°C° 0 mm 6 mps 762 mmHg 35%
    13:00 +36°C° 0 mm 6 mps 762 mmHg 35%
    14:00 +36°C° 0 mm 6 mps 761 mmHg 35%
    15:00 +36°C° 0 mm 6 mps 761 mmHg 35%
    16:00 +34°C° 0 mm 6 mps 760 mmHg 41%
    17:00 +33°C° 0 mm 6 mps 760 mmHg 47%
    18:00 +30°C° 0 mm 6 mps 760 mmHg 53%
    19:00 +29°C° 0 mm 6 mps 761 mmHg 58%
    20:00 +28°C° 0 mm 6 mps 761 mmHg 63%
    21:00 +27°C° 0 mm 6 mps 762 mmHg 68%
    22:00 +26°C° 0 mm 6 mps 762 mmHg 68%
    23:00 +26°C° 0 mm 6 mps 761 mmHg 68%

    25 September, Tuesday

    Time Temperature Precipitation Wind Pressure Humidity
    00:00 +26°C° 0 mm 6 mps 761 mmHg 68%
    01:00 +26°C° 0 mm 6 mps 761 mmHg 68%
    02:00 +24°C° 0 mm 6 mps 761 mmHg 69%
    03:00 +24°C° 0 mm 6 mps 761 mmHg 69%
    04:00 +24°C° 0 mm 6 mps 761 mmHg 70%
    05:00 +24°C° 0 mm 6 mps 761 mmHg 71%
    06:00 +24°C° 0 mm 6 mps 761 mmHg 72%
    07:00 +26°C° 0 mm 6 mps 761 mmHg 66%
    08:00 +28°C° 0 mm 7 mps 762 mmHg 60%
    09:00 +30°C° 0 mm 7 mps 762 mmHg 54%
    10:00 +32°C° 0 mm 7 mps 762 mmHg 50%
    11:00 +33°C° 0 mm 7 mps 762 mmHg 47%
    12:00 +34°C° 0 mm 7 mps 762 mmHg 43%
    13:00 +34°C° 0 mm 7 mps 761 mmHg 44%
    14:00 +34°C° 0 mm 8 mps 761 mmHg 45%
    15:00 +34°C° 0 mm 8 mps 761 mmHg 47%
    16:00 +33°C° 0 mm 8 mps 761 mmHg 53%
    17:00 +31°C° 0 mm 8 mps 761 mmHg 59%
    18:00 +29°C° 0 mm 8 mps 761 mmHg 66%
    19:00 +28°C° 0 mm 8 mps 761 mmHg 69%
    20:00 +27°C° 0 mm 8 mps 762 mmHg 73%
    21:00 +26°C° 0 mm 9 mps 762 mmHg 77%
    22:00 +26°C° 0 mm 9 mps 762 mmHg 77%
    23:00 +26°C° 0 mm 9 mps 762 mmHg 78%

    26 September, Wednesday

    Time Temperature Precipitation Wind Pressure Humidity
    00:00 +26°C° 0 mm 9 mps 762 mmHg 79%
    01:00 +24°C° 0 mm 9 mps 762 mmHg 79%
    02:00 +24°C° 0 mm 9 mps 762 mmHg 80%
    03:00 +24°C° 0 mm 9 mps 762 mmHg 81%
    04:00 +24°C° 0 mm 9 mps 762 mmHg 81%
    05:00 +24°C° 0 mm 9 mps 762 mmHg 82%
    06:00 +24°C° 0 mm 9 mps 763 mmHg 82%
    07:00 +26°C° 0 mm 9 mps 763 mmHg 75%
    08:00 +27°C° 0 mm 9 mps 763 mmHg 68%
    09:00 +28°C° 0 mm 9 mps 763 mmHg 61%
    10:00 +29°C° 0 mm 10 mps 763 mmHg 57%
    11:00 +32°C° 0 mm 10 mps 763 mmHg 53%
    12:00 +33°C° 0 mm 10 mps 763 mmHg 49%
    13:00 +33°C° 0 mm 10 mps 763 mmHg 50%
    14:00 +33°C° 0 mm 10 mps 762 mmHg 51%
    15:00 +33°C° 0 mm 10 mps 762 mmHg 51%
    16:00 +31°C° 0 mm 10 mps 762 mmHg 56%
    17:00 +29°C° 0 mm 10 mps 762 mmHg 62%
    18:00 +28°C° 0 mm 9 mps 762 mmHg 67%
    19:00 +27°C° 0 mm 9 mps 763 mmHg 70%
    20:00 +26°C° 0 mm 9 mps 763 mmHg 74%
    21:00 +26°C° 0 mm 9 mps 764 mmHg 77%
    22:00 +26°C° 0 mm 9 mps 763 mmHg 78%
    23:00 +24°C° 0 mm 9 mps 763 mmHg 79%

    27 September, Thursday

    Time Temperature Precipitation Wind Pressure Humidity
    00:00 +24°C° 0 mm 8 mps 763 mmHg 81%
    01:00 +24°C° 0 mm 8 mps 763 mmHg 81%
    02:00 +24°C° 0 mm 8 mps 763 mmHg 82%
    03:00 +24°C° 0 mm 8 mps 763 mmHg 82%
    04:00 +24°C° 0 mm 8 mps 763 mmHg 82%
    05:00 +23°C° 0 mm 8 mps 763 mmHg 83%
    06:00 +23°C° 0 mm 8 mps 763 mmHg 83%
    07:00 +26°C° 0 mm 8 mps 763 mmHg 76%
    08:00 +27°C° 0 mm 8 mps 763 mmHg 69%
    09:00 +28°C° 0 mm 8 mps 763 mmHg 62%
    10:00 +29°C° 0 mm 8 mps 763 mmHg 58%
    11:00 +32°C° 0 mm 8 mps 763 mmHg 53%
    12:00 +33°C° 0 mm 8 mps 763 mmHg 48%
    13:00 +33°C° 0 mm 8 mps 762 mmHg 49%
    14:00 +33°C° 0 mm 8 mps 761 mmHg 49%
    15:00 +33°C° 0 mm 8 mps 761 mmHg 49%
    16:00 +32°C° 0 mm 7 mps 761 mmHg 55%
    17:00 +29°C° 0 mm 7 mps 761 mmHg 61%
    18:00 +28°C° 0 mm 7 mps 761 mmHg 67%
    19:00 +27°C° 0 mm 7 mps 761 mmHg 71%
    20:00 +26°C° 0 mm 7 mps 761 mmHg 75%
    21:00 +24°C° 0 mm 7 mps 761 mmHg 79%
    22:00 +24°C° 0 mm 6 mps 761 mmHg 79%
    23:00 +24°C° 0 mm 6 mps 761 mmHg 79%
    Show more